Location: Alphen
(52.1351°N, 4.6549°E)
Time: 00:10:04
(UTC+00:00)

Cosmos 972 Rocket - Pass Details

Date: 27 January 2021
Orbit: 713 x 1151 km, 75.8° (Epoch: 26 February)

Event Time Altitude Azimuth Distance (km) Brightness Sun altitude
Rises 05:15:01 0° 196° (SSW) 3,701 7.4 -20.4°
Reaches altitude 10° 05:17:40 10° 196° (SSW) 2,690 6.7 -20.0°
Maximum altitude 05:23:50 82° 110° (ESE) 896 4.3 -19.0°
Drops below altitude 10° 05:29:20 10° 24° (NNE) 2,413 6.8 -18.2°
Sets 05:31:37 0° 23° (NNE) 3,295 7.5 -17.8°
